QPF
0.00 0.00 0.00 0.00 0.00 0.00 0.00 0.00 0.00 0.00 0.00 0.00 0.00 0.00 0.00 0.00 0.00 0.00 0.00 0.00 0.00 0.00 0.00 0.00 0.00 0.00 0.00 0.00 0.00 0.00 0.00 0.00 0.00 0.00 0.00 0.00 0.00 0.00 0.00 0.00 0.00 0.00 0.00 0.00 0.00
0.00 0.00 0.00 0.00 0.00 0.00 0.00 0.00 0.00 0.00 0.00 0.00 0.00 0.00 0.00 0.00 0.00 0.00 0.00 0.00 0.00 0.00 0.00 0.00 0.00 0.00 0.00 0.00 0.00 0.00 0.00 0.00 0.00 0.00 0.00 0.00 0.00 0.00 0.00 0.00 0.00 0.00 0.00 0.00 0.00
0.00 0.00 0.00 0.00 0.00 0.00 0.00 0.00 0.00 0.00 0.00 0.00 0.00 0.00 0.00 0.00 0.00 0.00 0.00 0.00 0.00 0.00 0.00 0.00 0.00 0.00 0.00 0.00 0.00 0.00 0.00 0.00 0.00 0.00 0.00 0.00 0.00 0.00 0.00 0.00 0.00 0.00 0.00 0.00 0.00
0.00 0.00 0.00 0.00 0.00 0.00 0.00 0.00 0.00 0.00 0.00 0.00 0.00 0.00 0.00 0.00 0.00 0.00 0.00 0.00 0.00 0.00 0.00 0.00 0.00 0.00 0.00 0.00 0.00 0.00 0.00 0.00 0.00 0.00 0.00 0.00 0.00 0.00 0.00 0.00 0.00 0.00 0.00 0.00 0.00
0.00 0.00 0.00 0.00 0.00 0.00 0.00 0.00 0.00 0.00 0.00 0.00 0.00 0.00 0.00 0.00 0.00 0.00 0.00 0.00 0.00 0.00 0.00 0.00 0.00 0.00 0.00 0.00 0.00 0.00 0.00 0.00 0.00 0.00 0.00 0.00 0.00 0.00 0.00 0.00 0.00 0.00 0.00 0.00 0.00
0.00 0.00 0.00 0.00 0.00 0.00 0.00 0.00 0.00 0.00 0.00 0.00 0.00 0.00 0.00 0.00 0.00 0.00 0.00 0.00 0.00 0.00 0.00 0.00 0.00 0.00 0.00 0.00 0.00 0.00 0.00 0.00 0.00 0.00 0.00 0.00 0.00 0.00 0.00 0.00 0.00 0.00 0.00 0.00 0.00
0.00 0.00 0.00 0.00 0.00 0.00 0.00 0.00 0.00 0.00 0.00 0.00 0.00 0.00 0.00 0.00 0.00 0.00 0.00 0.00 0.00 0.00 0.00 0.00 0.00 0.00 0.00 0.00 0.00 0.00 0.00 0.00 0.00 0.00 0.00 0.00 0.00 0.00 0.00 0.00 0.00 0.00 0.00 0.00 0.00
0.00 0.00 0.00 0.00 0.00 0.00 0.00 0.00 0.00 0.00 0.00 0.00 0.00 0.00 0.00 0.00 0.00 0.00 0.00 0.00 0.00 0.00 0.00 0.00 0.00 0.00 0.00 0.00 0.00 0.00 0.00 0.00 0.00 0.00 0.00 0.00 0.00 0.00 0.00 0.00 0.00 0.00 0.00 0.00 0.00
0.00 0.00 0.00 0.00 0.00 0.00 0.00 0.00 0.00 0.00 0.00 0.00 0.00 0.00 0.00 0.00 0.00 0.00 0.00 0.00 0.00 0.00 0.00 0.00 0.00 0.00 0.00 0.00 0.00 0.00 0.00 0.00 0.00 0.00 0.00 0.00 0.00 0.00 0.00 0.00 0.00 0.00 0.00 0.00 0.00
0.00 0.00 0.00 0.00 0.00 0.00 0.00 0.00 0.00 0.00 0.00 0.00 0.00 0.00 0.00 0.00 0.00 0.00 0.00 0.00 0.00 0.00 0.00 0.00 0.00 0.00 0.00 0.00 0.00 0.00 0.00 0.00 0.00 0.00 0.00 0.00 0.00 0.00 0.00 0.00 0.00 0.00 0.00 0.00 0.00
0.00 0.00 0.00 0.00 0.00 0.00 0.00 0.00 0.00 0.00 0.00 0.00 0.00 0.00 0.00 0.00 0.00 0.00 0.00 0.00 0.00 0.00 0.00 0.00 0.00 0.00 0.00 0.00 0.00 0.00 0.00 0.00 0.00 0.00 0.00 0.00 0.00 0.00 0.00 0.00 0.00 0.00 0.00 0.00 0.00
0.00 0.00 0.00 0.00 0.00 0.00 0.00 0.00 0.00 0.00 0.00 0.00 0.00 0.00 0.00 0.00 0.00 0.00 0.00 0.00 0.00 0.00 0.00 0.00 0.00 0.00 0.00 0.00 0.00 0.00 0.00 0.00 0.00 0.00 0.00 0.00 0.00 0.00 0.00 0.00 0.00 0.00 0.00 0.00 0.00
0.00 0.00 0.00 0.00 0.00 0.00 0.00 0.00 0.00 0.00 0.00 0.00 0.00 0.00 0.00 0.00 0.00 0.00 0.00 0.00 0.00 0.00 0.00 0.00 0.00 0.00 0.00 0.00 0.00 0.00 0.00 0.00 0.00 0.00 0.00 0.00 0.00 0.00 0.00 0.00 0.00 0.00 0.00 0.00 0.00
0.00 0.00 0.00 0.00 0.00 0.00 0.00 0.00 0.00 0.00 0.00 0.00 0.00 0.00 0.00 0.00 0.00 0.00 0.00 0.00 0.00 0.00 0.00 0.00 0.00 0.00 0.00 0.00 0.00 0.00 0.00 0.00 0.00 0.00 0.00 0.00 0.00 0.00 0.00 0.00 0.00 0.00 0.00 0.00 0.00
0.00 0.00 0.00 0.00 0.00 0.00 0.00 0.00 0.00 0.00 0.00 0.00 0.00 0.00 0.00 0.00 0.00 0.00 0.00 0.00 0.00 0.00 0.00 0.00 0.00 0.00 0.00 0.00 0.00 0.00 0.00 0.00 0.00 0.00 0.00 0.00 0.00 0.00 0.00 0.00 0.00 0.00 0.00 0.00 0.00
0.00 0.00 0.00 0.00 0.00 0.00 0.00 0.00 0.00 0.00 0.00 0.00 0.00 0.00 0.00 0.00 0.00 0.00 0.00 0.00 0.00 0.00 0.00 0.00 0.00 0.00 0.00 0.00 0.00 0.00 0.00 0.00 0.00 0.00 0.00 0.00 0.00 0.00 0.00 0.00 0.00 0.00 0.00 0.00 0.00
0.00 0.00 0.00 0.00 0.00 0.00 0.00 0.00 0.00 0.00 0.00 0.00 0.00 0.00 0.00 0.00 0.00 0.00 0.00 0.00 0.00 0.00 0.00 0.00 0.00 0.00 0.00 0.00 0.00 0.00 0.00 0.00 0.00 0.00 0.00 0.00 0.00 0.00 0.00 0.00 0.00 0.00 0.00 0.00 0.00
0.00 0.00 0.00 0.00 0.00 0.00 0.00 0.00 0.00 0.00 0.00 0.00 0.00 0.00 0.00 0.00 0.00 0.00 0.00 0.00 0.00 0.00 0.00 0.00 0.00 0.00 0.00 0.00 0.00 0.00 0.00 0.00 0.00 0.00 0.00 0.00 0.00 0.00 0.00 0.00 0.00 0.00 0.00 0.00 0.00
0.00 0.00 0.00 0.00 0.00 0.00 0.00 0.00 0.00 0.00 0.00 0.00 0.00 0.00 0.00 0.00 0.00 0.00 0.00 0.00 0.00 0.00 0.00 0.00 0.00 0.00 0.00 0.00 0.00 0.00 0.00 0.00 0.00 0.00 0.00 0.00 0.00 0.00 0.00 0.00 0.00 0.00 0.00 0.00 0.00
0.00 0.00 0.00 0.00 0.00 0.00 0.00 0.00 0.00 0.00 0.00 0.00 0.00 0.00 0.00 0.00 0.00 0.00 0.00 0.00 0.00 0.00 0.00 0.00 0.00 0.00 0.00 0.00 0.00 0.00 0.00 0.00 0.00 0.00 0.00 0.00 0.00 0.00 0.00 0.00 0.00 0.00 0.00 0.00 0.00
0.00 0.00 0.00 0.00 0.00 0.00 0.00 0.00 0.00 0.00 0.00 0.00 0.00 0.00 0.00 0.00 0.00 0.00 0.00 0.00 0.00 0.00 0.00 0.00 0.00 0.00 0.00 0.00 0.00 0.00 0.00 0.00 0.00 0.00 0.00 0.00 0.00 0.00 0.00 0.00 0.00 0.00 0.00 0.00 0.03
0.00 0.00 0.00 0.00 0.00 0.00 0.00 0.00 0.00 0.00 0.00 0.00 0.00 0.00 0.00 0.00 0.00 0.00 0.00 0.00 0.00 0.00 0.00 0.00 0.00 0.00 0.00 0.00 0.00 0.00 0.00 0.00 0.00 0.00 0.00 0.00 0.00 0.00 0.00 0.00 0.00 0.00 0.00 0.03 0.04
0.00 0.00 0.00 0.00 0.00 0.00 0.00 0.00 0.00 0.00 0.00 0.00 0.00 0.00 0.00 0.00 0.00 0.00 0.00 0.00 0.00 0.00 0.00 0.00 0.00 0.00 0.00 0.00 0.00 0.00 0.00 0.00 0.00 0.00 0.00 0.00 0.00 0.00 0.00 0.00 0.00 0.00 0.00 0.01 0.03
0.00 0.00 0.00 0.00 0.00 0.00 0.00 0.00 0.00 0.00 0.00 0.00 0.00 0.00 0.00 0.00 0.00 0.00 0.00 0.00 0.00 0.00 0.00 0.00 0.00 0.00 0.00 0.00 0.00 0.00 0.00 0.00 0.00 0.00 0.00 0.00 0.00 0.00 0.00 0.00 0.00 0.00 0.00 0.00 0.01
0.00 0.00 0.00 0.00 0.00 0.00 0.00 0.00 0.00 0.00 0.00 0.00 0.00 0.00 0.00 0.00 0.00 0.00 0.00 0.00 0.00 0.00 0.00 0.00 0.00 0.00 0.00 0.00 0.00 0.00 0.00 0.00 0.00 0.00 0.00 0.00 0.00 0.00 0.00 0.00 0.00 0.00 0.00 0.00 0.00
0.00 0.00 0.00 0.00 0.00 0.00 0.00 0.00 0.00 0.00 0.00 0.00 0.00 0.00 0.00 0.00 0.00 0.00 0.00 0.00 0.00 0.00 0.00 0.00 0.00 0.00 0.00 0.00 0.00 0.00 0.00 0.00 0.00 0.00 0.00 0.00 0.00 0.00 0.00 0.01 0.01 0.01 0.01 0.00 0.01
0.00 0.00 0.00 0.00 0.00 0.00 0.00 0.00 0.00 0.00 0.00 0.00 0.00 0.00 0.00 0.00 0.00 0.00 0.00 0.00 0.00 0.00 0.00 0.00 0.00 0.00 0.00 0.00 0.00 0.00 0.00 0.00 0.00 0.00 0.00 0.00 0.00 0.00 0.00 0.00 0.00 0.01 0.00 0.00 0.00
MSLP
1016.33 1016.07 1015.81 1015.57 1015.32 1015.03 1014.72 1014.47 1014.26 1014.01 1013.78 1013.30 1012.92 1012.80 1012.54 1011.91 1010.76 1010.09 1008.60 1006.75 1006.66 1006.67 1006.87 1007.07 1006.90 1007.04 1007.10 1006.77 1006.77 1006.65 1006.14 1005.85 1005.73 1005.80 1005.62 1006.28 1006.66 1007.45 1007.94 1008.25 1008.94 1009.57 1010.10 1010.86 1012.61
1016.23 1015.98 1015.76 1015.49 1015.23 1014.95 1014.60 1014.39 1014.16 1013.85 1013.58 1013.24 1012.85 1012.57 1012.41 1011.87 1010.91 1009.02 1006.80 1006.66 1006.75 1006.58 1006.62 1006.72 1006.41 1006.38 1006.58 1006.77 1006.65 1006.38 1006.25 1005.49 1005.51 1005.42 1005.50 1006.23 1006.61 1007.25 1007.94 1008.46 1009.45 1010.25 1011.05 1011.90 1012.83
1016.14 1015.91 1015.71 1015.41 1015.12 1014.88 1014.52 1014.19 1013.96 1013.68 1013.40 1013.08 1012.82 1012.41 1012.03 1011.59 1010.07 1007.43 1006.38 1006.33 1006.55 1006.58 1006.61 1006.73 1006.61 1006.41 1006.48 1006.52 1006.42 1006.33 1005.87 1005.48 1005.16 1005.21 1005.41 1006.18 1006.70 1007.23 1007.65 1008.17 1008.86 1010.10 1011.14 1011.97 1012.65
1016.14 1015.87 1015.57 1015.25 1014.96 1014.75 1014.40 1014.11 1013.87 1013.61 1013.33 1012.94 1012.61 1012.14 1011.59 1010.96 1009.05 1006.93 1006.56 1006.26 1006.47 1006.77 1006.74 1006.61 1006.50 1006.04 1006.11 1005.83 1005.96 1005.90 1005.46 1005.24 1005.00 1005.13 1005.53 1006.09 1006.71 1007.22 1007.60 1007.94 1008.55 1010.06 1010.82 1011.58 1012.26
1016.03 1015.69 1015.43 1015.16 1014.87 1014.57 1014.36 1014.14 1013.83 1013.56 1013.27 1012.83 1012.55 1012.03 1011.22 1010.03 1007.83 1006.71 1006.81 1006.57 1006.80 1006.90 1006.57 1006.29 1006.13 1005.96 1005.60 1005.75 1005.62 1005.40 1004.76 1004.93 1004.84 1005.19 1005.58 1006.11 1006.67 1007.10 1007.98 1008.52 1009.20 1010.10 1010.98 1011.30 1011.78
1015.94 1015.56 1015.22 1014.99 1014.71 1014.38 1014.16 1014.00 1013.78 1013.48 1013.15 1012.77 1012.50 1012.06 1011.07 1009.06 1006.71 1006.74 1006.89 1006.67 1006.50 1006.50 1006.26 1006.17 1005.75 1005.70 1005.50 1005.46 1005.11 1004.78 1004.59 1004.70 1004.95 1005.18 1005.58 1005.87 1006.58 1007.05 1008.46 1008.97 1009.67 1009.96 1010.71 1011.13 1011.43
1015.87 1015.49 1015.14 1014.81 1014.50 1014.19 1013.93 1013.77 1013.55 1013.27 1012.90 1012.58 1012.32 1011.95 1010.68 1007.70 1006.59 1006.65 1006.61 1006.20 1006.02 1005.74 1005.55 1005.51 1005.49 1005.47 1005.31 1004.93 1004.94 1004.62 1004.46 1004.68 1005.04 1005.35 1005.43 1005.71 1006.50 1006.84 1007.93 1008.77 1009.40 1009.88 1010.15 1010.72 1011.21
1015.77 1015.41 1015.00 1014.68 1014.31 1013.98 1013.72 1013.52 1013.28 1012.95 1012.69 1012.42 1012.22 1011.74 1009.28 1006.87 1006.66 1006.39 1005.97 1005.67 1005.72 1005.61 1005.35 1005.26 1005.31 1005.16 1005.24 1005.07 1004.73 1004.62 1004.77 1004.59 1004.88 1005.28 1005.50 1005.67 1005.69 1006.76 1007.75 1008.28 1008.95 1009.53 1009.84 1010.11 1010.53
1015.72 1015.31 1014.91 1014.50 1014.10 1013.75 1013.44 1013.18 1012.78 1012.53 1012.40 1012.28 1011.97 1011.10 1008.01 1006.56 1006.38 1005.62 1005.55 1005.22 1005.22 1005.33 1005.18 1005.29 1005.05 1005.38 1005.36 1004.89 1004.85 1004.96 1004.74 1004.73 1004.72 1004.99 1005.34 1005.72 1005.49 1006.59 1007.49 1007.84 1008.39 1008.89 1009.17 1009.48 1010.03
1015.62 1015.21 1014.76 1014.36 1013.98 1013.60 1013.10 1012.61 1012.28 1012.23 1012.21 1012.03 1011.46 1010.74 1007.46 1006.58 1005.97 1005.53 1005.31 1005.11 1004.84 1004.97 1005.08 1005.06 1005.16 1005.33 1005.41 1004.94 1004.87 1005.16 1004.92 1004.97 1004.86 1004.97 1005.24 1005.55 1005.52 1006.51 1007.28 1007.53 1007.94 1008.41 1008.57 1008.90 1009.28
1015.55 1015.11 1014.64 1014.26 1013.93 1013.62 1012.99 1012.20 1012.29 1011.96 1011.36 1009.96 1009.47 1008.64 1007.27 1006.59 1006.15 1005.19 1004.88 1004.73 1004.76 1004.74 1004.69 1005.32 1005.04 1005.07 1005.23 1005.33 1005.40 1005.36 1005.19 1005.00 1004.76 1004.79 1005.14 1005.38 1005.69 1006.27 1006.76 1007.38 1007.79 1007.90 1008.12 1008.28 1008.58
1015.33 1014.94 1014.47 1014.07 1013.82 1013.60 1013.48 1012.03 1011.01 1010.96 1010.00 1008.84 1008.73 1008.20 1007.39 1006.99 1005.91 1004.88 1004.67 1004.61 1004.63 1004.60 1004.98 1005.25 1004.97 1005.44 1005.53 1005.45 1005.42 1005.21 1004.83 1004.61 1004.79 1004.85 1005.09 1005.46 1005.60 1005.99 1006.32 1006.72 1006.97 1007.34 1007.62 1007.75 1008.79
1015.09 1014.65 1014.21 1013.85 1013.59 1013.50 1012.67 1011.21 1010.73 1010.50 1009.72 1008.14 1007.80 1007.20 1006.58 1006.47 1005.48 1004.66 1004.63 1004.47 1004.56 1004.60 1004.68 1004.64 1005.02 1005.37 1005.16 1005.11 1004.86 1004.60 1004.28 1004.33 1004.48 1004.96 1005.40 1005.53 1005.63 1005.84 1006.27 1006.85 1007.00 1007.35 1007.48 1007.77 1009.02
1014.86 1014.42 1014.02 1013.62 1013.89 1013.08 1011.79 1010.75 1010.58 1010.34 1009.26 1007.47 1006.91 1005.73 1006.01 1005.67 1005.06 1004.41 1004.22 1004.10 1004.51 1004.42 1004.54 1004.72 1004.97 1004.86 1004.86 1004.75 1004.54 1004.03 1004.26 1004.26 1004.54 1004.58 1005.24 1006.02 1005.27 1005.41 1006.10 1006.44 1006.73 1006.90 1007.08 1007.33 1008.39
1014.55 1014.19 1013.91 1013.81 1013.64 1012.54 1011.11 1010.78 1010.41 1010.08 1008.14 1006.41 1005.86 1005.44 1005.42 1005.16 1004.43 1004.36 1004.23 1004.13 1004.16 1004.22 1004.46 1004.65 1004.74 1004.74 1004.51 1004.40 1004.12 1004.28 1004.45 1004.72 1004.78 1004.98 1005.34 1005.85 1005.75 1005.20 1006.11 1006.50 1006.93 1007.18 1007.13 1007.10 1007.90
1014.19 1013.89 1013.71 1013.56 1013.44 1011.49 1011.04 1010.73 1010.12 1009.13 1006.63 1005.53 1005.07 1004.99 1004.98 1004.66 1004.18 1004.17 1004.06 1004.16 1004.44 1004.25 1004.36 1004.52 1004.85 1004.56 1004.34 1004.38 1004.03 1004.41 1004.57 1005.03 1005.35 1005.19 1005.27 1006.25 1006.15 1005.20 1006.06 1006.95 1007.07 1007.39 1007.57 1007.77 1008.19
1013.55 1013.08 1013.25 1012.71 1011.56 1011.05 1010.92 1010.32 1009.20 1007.60 1005.79 1005.03 1004.50 1004.38 1004.07 1004.13 1003.99 1003.85 1003.92 1003.98 1003.89 1004.10 1004.12 1004.31 1004.11 1004.20 1004.26 1004.11 1004.15 1004.27 1004.33 1004.50 1004.81 1004.98 1005.58 1006.56 1006.46 1005.50 1006.28 1007.16 1007.40 1007.61 1007.76 1008.15 1008.58
1012.77 1012.29 1012.16 1011.71 1011.40 1011.14 1010.35 1009.44 1007.95 1006.24 1005.08 1004.42 1004.15 1004.15 1003.76 1003.75 1003.95 1003.92 1003.88 1004.01 1004.31 1004.09 1004.31 1004.28 1004.25 1004.00 1003.81 1003.34 1003.58 1004.24 1004.22 1004.36 1004.76 1005.34 1005.94 1006.73 1006.05 1005.71 1006.60 1007.23 1007.60 1008.04 1008.41 1008.62 1008.78
1012.21 1011.98 1011.89 1010.91 1011.25 1011.19 1009.78 1008.29 1006.77 1005.70 1004.80 1004.19 1004.04 1003.65 1003.68 1003.67 1003.59 1003.84 1003.89 1003.79 1003.89 1003.91 1003.73 1004.29 1004.07 1003.79 1003.52 1003.63 1004.03 1004.58 1004.75 1005.16 1005.26 1006.50 1006.12 1006.25 1006.26 1005.75 1006.21 1007.00 1007.52 1008.13 1008.72 1008.95 1009.16
1012.05 1011.31 1010.71 1010.57 1010.87 1010.46 1009.12 1007.55 1006.48 1005.64 1004.79 1004.10 1003.40 1003.23 1003.13 1003.45 1003.64 1003.68 1003.85 1003.61 1003.67 1003.81 1003.78 1004.31 1003.90 1003.67 1004.06 1004.06 1004.54 1004.37 1005.01 1005.32 1005.32 1005.65 1005.83 1006.17 1006.21 1005.65 1006.20 1006.55 1007.40 1008.14 1008.80 1009.28 1009.57
1011.60 1010.63 1010.48 1010.58 1010.70 1009.51 1008.08 1007.05 1006.08 1005.19 1004.90 1003.96 1003.48 1003.19 1002.80 1003.04 1003.14 1003.31 1003.24 1003.27 1003.08 1003.74 1004.02 1004.16 1004.07 1004.21 1004.22 1004.39 1004.31 1004.97 1004.89 1005.58 1005.79 1006.11 1005.67 1005.78 1005.69 1006.31 1006.55 1006.83 1007.37 1008.45 1009.19 1009.78 1010.15
1011.53 1010.49 1010.61 1010.54 1009.83 1009.08 1007.49 1006.66 1005.92 1004.95 1004.68 1004.08 1003.51 1003.01 1002.59 1002.64 1002.77 1002.89 1002.68 1002.44 1002.69 1002.92 1003.62 1004.11 1004.12 1004.00 1004.53 1004.79 1005.02 1004.88 1005.04 1005.10 1004.98 1006.20 1006.64 1006.53 1006.20 1006.91 1007.18 1007.38 1007.96 1008.80 1009.78 1010.24 1010.57
1011.89 1010.72 1010.41 1010.09 1008.76 1007.95 1007.21 1006.35 1005.63 1004.81 1004.09 1003.43 1002.87 1002.62 1002.30 1002.12 1002.57 1002.55 1002.36 1002.22 1002.50 1002.71 1003.13 1003.87 1004.19 1004.16 1004.48 1004.74 1004.99 1005.03 1005.70 1005.80 1005.54 1005.90 1006.25 1006.31 1006.38 1007.31 1007.65 1007.95 1008.49 1008.93 1009.83 1010.71 1011.02
1012.20 1010.52 1009.86 1009.38 1008.55 1007.25 1006.57 1005.93 1005.19 1004.51 1003.72 1003.04 1002.41 1002.31 1002.16 1001.97 1002.09 1002.16 1002.09 1002.51 1002.63 1002.71 1002.98 1003.36 1004.13 1004.05 1004.27 1004.57 1004.94 1005.41 1005.97 1006.27 1005.98 1005.93 1006.36 1006.53 1006.90 1007.85 1008.55 1009.02 1009.50 1010.03 1010.52 1011.27 1011.60
1011.94 1010.29 1009.44 1008.52 1007.71 1007.05 1006.51 1005.90 1005.06 1004.48 1003.29 1002.64 1001.90 1001.54 1001.19 1001.24 1001.33 1001.41 1001.71 1002.29 1003.04 1003.56 1003.79 1003.55 1004.13 1005.01 1005.37 1005.51 1005.71 1006.20 1006.49 1006.75 1006.65 1006.98 1006.93 1007.33 1008.12 1009.34 1010.04 1010.41 1010.74 1011.12 1011.67 1011.98 1012.50
1011.77 1010.65 1009.55 1008.42 1007.57 1006.90 1006.34 1005.44 1004.69 1003.94 1003.33 1002.09 1001.82 1000.98 1000.86 1000.41 1000.00 1000.55 1000.75 1001.33 1002.19 1003.54 1003.79 1004.43 1005.05 1005.37 1006.09 1006.33 1006.34 1006.87 1007.34 1007.43 1007.70 1007.99 1008.16 1008.52 1009.50 1010.63 1011.19 1011.53 1011.82 1012.20 1012.28 1012.54 1012.84
1012.39 1011.50 1010.56 1008.70 1007.48 1006.63 1005.78 1005.05 1004.23 1004.05 1002.55 1001.85 1001.53 1001.25 1000.40 999.81 999.95 1000.21 1000.15 1000.68 1001.45 1002.58 1003.67 1004.33 1004.97 1005.56 1006.63 1007.14 1007.18 1007.49 1008.09 1008.30 1008.56 1008.87 1008.89 1008.95 1009.99 1011.08 1011.64 1012.19 1012.68 1013.07 1013.19 1013.46 1013.84
Thickness
5742 5747 5752 5757 5762 5767 5773 5777 5781 5786 5790 5795 5801 5802 5805 5812 5822 5830 5831 5853 5858 5860 5858 5854 5852 5847 5846 5837 5838 5835 5807 5796 5802 5800 5809 5819 5809 5814 5817 5805 5804 5801 5795 5794 5782
5738 5743 5749 5754 5760 5765 5770 5775 5780 5785 5790 5795 5800 5803 5806 5811 5818 5828 5856 5859 5859 5861 5855 5848 5844 5847 5835 5830 5831 5819 5800 5809 5824 5825 5817 5818 5815 5813 5805 5800 5791 5790 5792 5788 5781
5733 5739 5744 5750 5756 5762 5768 5774 5779 5785 5789 5794 5798 5802 5807 5811 5821 5836 5860 5861 5861 5861 5858 5854 5850 5844 5829 5832 5827 5820 5807 5823 5831 5835 5832 5820 5815 5820 5809 5797 5803 5791 5789 5786 5780
5728 5733 5739 5746 5752 5758 5765 5771 5776 5782 5787 5792 5797 5803 5808 5814 5804 5845 5857 5862 5862 5859 5853 5848 5843 5836 5827 5825 5832 5815 5829 5832 5837 5838 5831 5820 5824 5814 5817 5814 5820 5807 5801 5792 5782
5723 5729 5734 5740 5747 5753 5760 5766 5772 5778 5784 5790 5795 5802 5810 5809 5822 5851 5853 5858 5857 5854 5847 5843 5836 5834 5827 5830 5831 5824 5836 5839 5843 5839 5834 5832 5820 5819 5813 5820 5819 5810 5800 5795 5790
5718 5724 5730 5736 5742 5749 5755 5761 5768 5774 5780 5786 5791 5798 5806 5799 5846 5848 5850 5854 5853 5850 5848 5847 5843 5845 5837 5833 5834 5843 5841 5840 5840 5837 5835 5828 5823 5827 5815 5820 5812 5809 5802 5799 5795
5714 5720 5725 5731 5738 5744 5751 5758 5765 5771 5777 5783 5789 5795 5799 5816 5845 5846 5849 5852 5856 5856 5848 5855 5856 5845 5845 5838 5848 5846 5833 5838 5835 5835 5832 5838 5816 5819 5825 5822 5812 5809 5809 5804 5800
5710 5715 5721 5727 5733 5740 5747 5754 5761 5768 5774 5780 5784 5791 5799 5838 5840 5843 5850 5851 5856 5859 5858 5861 5861 5851 5842 5849 5843 5833 5830 5815 5832 5834 5837 5836 5814 5826 5829 5823 5815 5812 5811 5809 5806
5704 5710 5716 5723 5729 5737 5744 5751 5759 5766 5771 5776 5782 5787 5799 5836 5828 5844 5849 5844 5850 5853 5857 5859 5857 5839 5840 5829 5821 5823 5807 5813 5823 5839 5832 5829 5824 5829 5833 5829 5819 5818 5819 5814 5809
5699 5704 5711 5718 5725 5732 5741 5750 5757 5763 5768 5772 5778 5780 5810 5812 5826 5838 5848 5848 5841 5841 5839 5841 5836 5826 5824 5824 5795 5801 5808 5813 5813 5831 5832 5824 5829 5829 5830 5830 5825 5822 5823 5820 5816
5692 5698 5705 5712 5719 5726 5737 5749 5754 5758 5765 5779 5785 5788 5803 5817 5826 5832 5843 5839 5838 5831 5817 5822 5816 5808 5817 5821 5821 5816 5810 5809 5823 5837 5828 5824 5827 5827 5834 5829 5825 5825 5824 5825 5822
5687 5692 5699 5707 5714 5720 5727 5747 5755 5762 5763 5781 5781 5787 5801 5808 5804 5825 5841 5821 5818 5806 5815 5812 5806 5816 5822 5822 5817 5816 5814 5817 5826 5832 5830 5820 5823 5829 5833 5832 5835 5830 5828 5829 5822
5683 5689 5695 5702 5709 5716 5729 5745 5753 5759 5755 5774 5781 5788 5798 5804 5803 5813 5827 5820 5809 5802 5809 5806 5814 5821 5821 5819 5818 5820 5822 5820 5821 5824 5825 5820 5815 5819 5831 5830 5835 5835 5835 5833 5820
5680 5685 5691 5698 5705 5713 5730 5743 5749 5755 5745 5767 5777 5795 5798 5802 5796 5823 5830 5821 5806 5801 5809 5809 5820 5819 5818 5815 5823 5819 5832 5830 5823 5821 5800 5810 5795 5818 5821 5825 5828 5832 5835 5836 5826
5678 5682 5687 5691 5698 5714 5731 5737 5745 5748 5724 5767 5776 5803 5797 5795 5804 5806 5826 5816 5798 5803 5808 5799 5808 5811 5812 5820 5830 5822 5830 5822 5819 5811 5807 5801 5799 5823 5819 5817 5819 5824 5830 5836 5832
5676 5680 5684 5689 5693 5716 5724 5732 5740 5726 5719 5759 5778 5779 5781 5790 5797 5803 5807 5818 5813 5802 5807 5806 5818 5820 5824 5828 5833 5830 5823 5813 5808 5808 5790 5788 5794 5812 5812 5810 5818 5822 5825 5826 5826
5677 5683 5684 5691 5711 5713 5719 5728 5718 5711 5757 5755 5766 5777 5782 5778 5785 5792 5789 5789 5785 5771 5776 5798 5810 5824 5828 5822 5829 5826 5816 5788 5782 5786 5782 5789 5789 5812 5820 5816 5817 5817 5820 5821 5821
5679 5685 5689 5695 5702 5708 5719 5721 5700 5731 5744 5766 5766 5768 5771 5778 5778 5780 5780 5777 5784 5790 5779 5775 5777 5813 5830 5833 5824 5817 5818 5791 5758 5770 5781 5786 5788 5812 5819 5820 5820 5816 5815 5817 5816
5681 5685 5688 5699 5700 5705 5717 5707 5718 5731 5752 5757 5761 5761 5763 5773 5778 5776 5775 5780 5790 5796 5783 5776 5788 5821 5829 5832 5829 5807 5803 5810 5785 5770 5777 5785 5798 5822 5825 5818 5816 5810 5808 5807 5809
5680 5690 5698 5699 5700 5709 5713 5705 5723 5738 5752 5760 5754 5766 5758 5764 5766 5769 5765 5786 5787 5798 5810 5795 5789 5815 5818 5827 5822 5822 5815 5795 5792 5763 5761 5777 5779 5803 5808 5815 5813 5806 5804 5803 5805
5683 5697 5695 5696 5700 5709 5707 5714 5726 5747 5750 5754 5755 5757 5768 5763 5772 5765 5775 5787 5804 5795 5806 5805 5800 5800 5812 5805 5808 5806 5806 5792 5794 5781 5776 5771 5789 5809 5807 5813 5812 5803 5800 5795 5793
5680 5694 5690 5694 5700 5695 5711 5720 5729 5744 5755 5757 5763 5768 5770 5771 5768 5771 5777 5791 5809 5812 5798 5809 5802 5789 5795 5811 5812 5812 5805 5810 5795 5769 5768 5776 5791 5805 5805 5810 5808 5800 5792 5789 5790
5678 5685 5689 5694 5700 5705 5711 5722 5732 5742 5752 5758 5762 5771 5778 5775 5763 5775 5783 5804 5810 5813 5804 5807 5794 5781 5788 5806 5812 5806 5797 5796 5800 5794 5773 5776 5789 5802 5803 5803 5802 5798 5791 5782 5782
5672 5687 5690 5694 5697 5711 5714 5723 5729 5749 5753 5765 5771 5774 5772 5774 5777 5773 5784 5797 5809 5817 5809 5817 5794 5796 5789 5797 5806 5793 5792 5790 5795 5785 5777 5782 5787 5785 5785 5784 5786 5783 5781 5774 5772
5670 5688 5690 5697 5704 5709 5717 5722 5728 5732 5759 5768 5772 5778 5783 5772 5777 5781 5792 5795 5800 5796 5804 5816 5790 5787 5787 5793 5793 5787 5786 5784 5783 5778 5776 5777 5770 5763 5764 5767 5769 5771 5766 5762 5756
5672 5679 5688 5697 5703 5709 5711 5727 5732 5745 5752 5768 5768 5786 5790 5787 5801 5787 5802 5803 5801 5799 5803 5802 5778 5788 5774 5785 5788 5776 5776 5776 5772 5766 5765 5764 5753 5755 5755 5756 5754 5752 5753 5750 5746
5659 5667 5676 5690 5704 5714 5723 5733 5743 5748 5770 5779 5782 5782 5792 5807 5816 5817 5830 5825 5822 5811 5798 5798 5787 5782 5762 5770 5774 5768 5764 5764 5761 5759 5761 5752 5753 5749 5744 5741 5740 5738 5740 5737 5734